Location: Lawrence Hall of Science
(37.8785°N, 122.2415°W)
Time: 02:27:12
(UTC-07:00)

Cosmos 2151 - Visible Passes

Search period start: 25 May 2018 00:00
Search period end: 04 June 2018 00:00
Orbit: 583 x 601 km, 82.5° (Epoch: 24 May)

Date Brightness Start Highest point End Pass type
(mag) Time Alt. Az. Time Alt. Az. Time Alt. Az.
25 May 3.0 04:11:38 30° SSW 04:13:38 67° W 04:17:56 10° N visible
26 May 5.5 02:44:03 12° ESE 02:45:36 14° E 02:47:44 10° NE visible
26 May 3.5 04:20:38 27° SW 04:22:27 42° W 04:26:34 10° N visible
27 May 5.0 02:53:01 19° ESE 02:54:13 21° E 02:57:26 10° NE visible
27 May 4.1 04:29:37 21° WSW 04:31:19 27° WNW 04:35:01 10° NNW visible
28 May 4.3 03:01:59 29° ESE 03:02:53 32° E 03:06:42 10° NNE visible
28 May 4.7 04:38:34 15° WSW 04:40:13 18° WNW 04:43:14 10° NNW visible
29 May 3.6 03:10:55 45° SE 03:11:34 50° E 03:15:44 10° NNE visible
29 May 5.1 04:47:30 10° W 04:49:09 12° WNW 04:50:53 10° NW visible
30 May 2.9 03:19:50 68° SSE 03:20:18 80° E 03:24:38 10° N visible
31 May 2.9 03:28:43 61° WSW 03:29:05 64° W 03:33:22 10° N visible
01 Jun 5.4 02:01:00 14° E 02:01:01 14° E 02:03:19 10° NE visible
01 Jun 3.6 03:37:36 40° W 03:37:54 40° W 03:41:58 10° N visible
02 Jun 4.9 02:09:52 22° E 02:09:52 22° E 02:12:57 10° NE visible
02 Jun 4.2 03:46:28 26° W 03:46:46 26° WNW 03:50:25 10° NNW visible
03 Jun 4.4 02:18:43 32° ENE 02:18:43 32° ENE 02:22:10 10° NNE visible
03 Jun 4.8 03:55:18 17° W 03:55:40 18° WNW 03:58:35 10° NNW visible
